Ketchikan, AK

9:04 PM AKDT on August 21, 2018 (GMT -0800)
Ketchikan International

Weather History for PAKT - February, 2018

Change the Weather History Date:

Saturday, February 17, 2018

  Actual Average Record
Temperature  
Mean Temperature 31 °F -  
Max Temperature 34 °F 42 °F 54 °F (1964)
Min Temperature 28 °F 30 °F 8 °F (1990)
Degree Days  
Heating Degree Days 34    
Moisture  
Dew Point 15 °F    
Average Humidity 53    
Maximum Humidity 82    
Minimum Humidity 41    
Precipitation  
Precipitation 0.00 in - - ()
Sea Level Pressure  
Sea Level Pressure 30.15 in    
Wind  
Wind Speed 12 mph (NNW)    
Max Wind Speed 22 mph    
Max Gust Speed 36 mph    
Visibility 10 miles    
Events      
Averages and records for this station are not official NWS values.
T = Trace of Precipitation, MM = Missing Value Source: NWS Daily Summary

Daily Weather History Graph

Daily Weather History Graph

Search for Another Location

Airport or City:

Astronomy

Feb. 17, 2018 Rise Set
Actual Time 7:05 AM AKST 4:57 PM AKST
Civil Twilight 6:27 AM AKST 5:35 PM AKST
Nautical Twilight 5:44 AM AKST 6:17 PM AKST
Astronomical Twilight 5:02 AM AKST 7:00 PM AKST
Moon 8:04 AM AKST (2/17) 7:16 PM AKST (2/17)
Length of Visible Light 11h 07m
Length of Day
9h 52m
Waxing Crescent, 4% of the Moon is Illuminated
Feb 17
Waxing Crescent
Feb 22
First Quarter
Mar 1
Full
Mar 9
Last Quarter
Mar 17
New

Hourly Weather History & Observations

Time (AKST) Temp. Windchill Dew Point Humidity Pressure Visibility Wind Dir Wind Speed Gust Speed Precip Events Conditions
12:53 AM 33.1 °F 24.9 °F 28.0 °F 82% 29.99 in 10.0 mi WNW 10.4 mph - N/A   Clear
1:53 AM 32.0 °F 24.2 °F 27.0 °F 82% 29.99 in 10.0 mi NW 9.2 mph - N/A   Clear
2:53 AM 30.9 °F 21.7 °F 23.0 °F 72% 29.98 in 10.0 mi NW 11.5 mph - N/A   Clear
3:53 AM 30.9 °F 24.3 °F 19.9 °F 64% 29.98 in 10.0 mi WNW 6.9 mph - N/A   Clear
4:53 AM 30.0 °F 20.5 °F 18.0 °F 61% 29.99 in 10.0 mi NW 11.5 mph - N/A   Clear
5:53 AM 28.9 °F 21.9 °F 18.0 °F 64% 30.01 in 10.0 mi WNW 6.9 mph - N/A   Clear
6:09 AM 28.9 °F 21.9 °F 18.0 °F 64% 30.00 in 10.0 mi WNW 6.9 mph - N/A   Clear
6:53 AM 30.2 °F 19.8 °F 15.8 °F 55% 30.02 in 10.0 mi NNW 13.8 mph - N/A   Clear
7:53 AM 30.2 °F 21.3 °F 14.0 °F 51% 30.05 in 10.0 mi North 10.4 mph - N/A   Clear
8:53 AM 30.2 °F 20.2 °F 12.2 °F 47% 30.09 in 10.0 mi North 12.7 mph 19.6 mph N/A   Clear
9:53 AM 32.0 °F 21.6 °F 15.8 °F 51% 30.10 in 10.0 mi NW 15.0 mph 21.9 mph N/A   Clear
10:53 AM 33.8 °F 25.3 °F 15.8 °F 48% 30.12 in 10.0 mi NNW 11.5 mph 21.9 mph N/A   Clear
11:53 AM 33.8 °F 23.9 °F 15.8 °F 48% 30.12 in 10.0 mi NW 15.0 mph 24.2 mph N/A   Clear
12:53 PM 33.8 °F 23.2 °F 12.2 °F 41% 30.14 in 10.0 mi NNW 17.3 mph 25.3 mph N/A   Clear
1:53 PM 34.0 °F 23.4 °F 14.0 °F 44% 30.17 in 10.0 mi North 17.3 mph 25.3 mph N/A   Clear
2:53 PM 33.1 °F 21.5 °F 14.0 °F 46% 30.17 in 10.0 mi NNW 19.6 mph 29.9 mph N/A   Clear
3:53 PM 32.0 °F 22.1 °F 14.0 °F 48% 30.20 in 10.0 mi NNW 13.8 mph 35.7 mph N/A   Clear
4:53 PM 32.0 °F 19.5 °F 14.0 °F 48% 30.22 in 10.0 mi NNW 21.9 mph - N/A   Clear
5:53 PM 30.9 °F 19.4 °F 10.0 °F 42% 30.25 in 10.0 mi NNW 17.3 mph 25.3 mph N/A   Clear
6:53 PM 30.0 °F 18.3 °F 9.0 °F 41% 30.28 in 10.0 mi NNW 17.3 mph - N/A   Clear
7:53 PM 30.0 °F 17.5 °F 9.0 °F 41% 30.30 in 10.0 mi NNW 19.6 mph 28.8 mph N/A   Clear
8:53 PM 28.9 °F 16.9 °F 9.0 °F 43% 30.33 in 10.0 mi North 17.3 mph - N/A   Clear
9:53 PM 28.9 °F 18.2 °F 8.1 °F 41% 30.35 in 10.0 mi North 13.8 mph - N/A   Clear
10:53 PM 28.0 °F 18.6 °F 10.0 °F 47% 30.38 in 10.0 mi NNW 10.4 mph - N/A   Clear
11:53 PM 28.0 °F 18.1 °F 10.9 °F 49% 30.40 in 10.0 mi North 11.5 mph - N/A   Clear